Regional Weather Roundup
Issued by NWS San Angelo, TX

Home | Current Version | Previous Version | Text Only | Print | Product List | Glossary On
Versions: 1 2 3 4 5 6 7 8 9 10 11 12 13 14 15 16 17 18 19 20 21 22 23 24 25 26 27 28 29 30 31 32 33 34 35 36 37 38 39 40 41 42 43 44 45 46 47 48 49 50
000
ASUS44 KSJT 182302
RWRSJT
WEST CENTRAL TEXAS REGIONAL WEATHER ROUNDUP
NATIONAL WEATHER SERVICE SAN ANGELO TX
500 PM CST MON DEC 18 2017

NOTE: "FAIR" INDICATES FEW OR NO CLOUDS BELOW 12,000 FEET WITH NO
SIGNIFICANT WEATHER AND/OR OBSTRUCTIONS TO VISIBILITY.

TXZ049-054-064>066-071>073-076>078-098-099-113-114-127-128-139-140-
154-155-168>170-190000
...LOCATIONS ACROSS WEST CENTRAL TEXAS...

CITY           SKY/WX    TMP DP  RH WIND       PRES   REMARKS
SAN ANGELO     CLEAR     60  46  59 S10       30.07R
ABILENE        CLEAR     59  51  75 S16       30.06R
DYESS AFB      NOT AVBL
JUNCTION       CLOUDY    60  57  89 S7        30.08S
SWEETWATER     PTCLDY    60  45  57 S6        30.09R
BROWNWOOD      NOT AVBL
COLEMAN        CLOUDY    60  52  75 S5        30.08S
SONORA         CLOUDY    55  50  82 CALM      30.14R
OZONA          FAIR      50  45  81 S6        30.12R
BRADY          NOT AVBL
$$

TEXAS PANHANDLE/OKLAHOMA PANHANDLE

CITY           SKY/WX    TMP DP  RH WIND       PRES   REMARKS
AMARILLO       NOT AVBL
BORGER         CLEAR     67  28  23 S14G21    29.98S
CANADIAN       CLEAR     66  34  30 S12       29.98S
DALHART        CLEAR     62  32  32 SW16      29.99S
DUMAS          CLEAR     61  32  33 SW9       29.99F
GUYMON         NOT AVBL
HEREFORD       CLEAR     63  32  32 MISG      30.03S
PAMPA          CLEAR     64  32  30 S12       30.01R
PERRYTON       CLEAR     67  33  28 SW9       29.95S
$$

SOUTHERN PANHANDLE/SOUTH PLAINS/ROLLING PLAINS

CITY           SKY/WX    TMP DP  RH WIND       PRES   REMARKS
LUBBOCK        MOCLDY    62  40  44 S9        30.02F
SNYDER         CLOUDY    62  46  55 SE10      30.05S
CHILDRESS      CLEAR     62  39  42 S10       30.02S
SEMINOLE       CLOUDY    64  33  32 SW9       30.07R
$$

PERMIAN BASIN

CITY           SKY/WX    TMP DP  RH WIND       PRES   REMARKS
MIDLAND        CLOUDY    64  38  38 SW8       30.06R
ODESSA         PTCLDY    63  39  41 SW7       30.07R
WINK           CLEAR     65  36  34 W6        30.05R
$$

FAR WEST/SOUTHWEST MOUNTAINS/TRANS PECOS

CITY           SKY/WX    TMP DP  RH WIND       PRES   REMARKS
ALPINE         CLOUDY    64  32  30 S6        30.15S
DRYDEN           N/A     49  45  86 E6        30.08R
EL PASO        PTSUNNY   56  44  64 CALM      30.11S
FORT STOCKTON  PTCLDY    61  41  47 CALM      30.07S
GUADALUPE PASS CLEAR     53  35  50 W20       30.14R
MARFA          CLOUDY    63  33  32 MISG      30.12S
PECOS          CLEAR     65  38  37 E3        30.06R
$$

DALLAS/FORT WORTH METROPLEX

CITY           SKY/WX    TMP DP  RH WIND       PRES   REMARKS
DFW AIRPORT    CLOUDY    53  49  86 E6        30.11S FOG
FTW MEACHAM    CLOUDY    53  51  93 SE9       30.11S FOG
DAL-EXECUTIVE  CLOUDY    48  48 100 E5        30.12S FOG
GRAND PRAIRIE  CLOUDY    52  52 100 E5        30.14S FOG
ADDISON        CLOUDY    52  48  87 E7        30.13S FOG
MESQUITE       CLOUDY    50  48  93 CALM      30.14F FOG
LANCASTER      CLOUDY    49  49  97 E3        30.14S FOG
$$

NORTH CENTRAL TEXAS

CITY           SKY/WX    TMP DP  RH WIND       PRES   REMARKS
SHRMAN/DENISON NOT AVBL
GAINESVILLE    CLOUDY    50  47  92 SE6       30.13S FOG
BRIDGEPORT     CLOUDY    51  51 100 SE6       30.11F FOG
DENTON         CLOUDY    52  49  89 SE7       30.11F FOG
WAXAHACHIE     FOG       50  50 100 CALM      30.14S VSB 3/4
GRANBURY       CLOUDY    53  51  94 SE8       30.12S FOG
$$

WESTERN NORTH TEXAS

CITY           SKY/WX    TMP DP  RH WIND       PRES   REMARKS
WICHITA FALLS  MOCLDY    56  47  71 SE9       30.05S
VERNON         CLOUDY    52  41  65 SE6       30.06S
BRECKENRIDGE   CLOUDY    65  54  67 S14       30.06R HAZE
COMANCHE       CLOUDY    60  58  93 S8        30.10R
$$

CENTRAL AND SOUTH CENTRAL TEXAS

CITY           SKY/WX    TMP DP  RH WIND       PRES   REMARKS
AUSTIN/BERGSTM FOG       57  57 100 N8        30.11R VSB 1/4
WACO           FOG       53  52  96 CALM      30.12S VSB 1/2
HILLSBORO      CLOUDY    53  53 100 E6        30.12S FOG
TEMPLE         FOG       54  53  97 E5        30.13R VSB 1/2
KILLEEN-GRAY   FOG       54  54 100 CALM      30.11R VSB 1/4
FORT HOOD      FOG       54  54 100 CALM      30.08S VSB 3/8
GEORGETOWN     FOG       55  54  96 E3        30.14R VSB 1/4
LAGO VISTA     DRZL/FOG  56  56  99 E5        30.12R VSB<1/4
SAN MARCOS     FOG       57  56  96 NE5       30.11R VSB 1/4
NEW BRAUNFELS  FOG       57  56  96 NE5       30.08R VSB 1/4
RANDOLPH AFB   FOG       58  57  98 E3        30.08F VSB 1/8
SAN ANTONIO    DRZL/FOG  58  57  97 CALM      30.09R VSB 1
STINSON        CLOUDY    59  57  93 NE5       30.06F FOG
PLEASANTON     NOT AVBL
LA GRANGE      CLOUDY    64  62  96 E3        30.08R FOG
GIDDINGS       CLOUDY    58  57  94 E5        30.11R FOG
$$

EAST TEXAS

CITY           SKY/WX    TMP DP  RH WIND       PRES   REMARKS
PARIS          CLOUDY    51  47  86 SE7       30.16F FOG
CLARKSVILLE    NOT AVBL
TYLER          CLOUDY    57  54  89 E5        30.14S
LONGVIEW       CLOUDY    57  56  96 E3        30.15S FOG
PALESTINE      CLOUDY    59  56  91 E3        30.15S
NACOGDOCHES    CLOUDY    61  57  87 CALM      30.16R
$$

TEXAS HILL COUNTRY AND EDWARDS PLATEAU

CITY           SKY/WX    TMP DP  RH WIND       PRES   REMARKS
LLANO          FOG       55  55 100 NE5       30.14R VSB 1
HORSESHOE BAY  FOG       56  56 100 CALM      30.11R VSB 1/2
KERRVILLE      FOG       56  54  91 CALM      30.10R VSB 1
FREDERICKSBRG  FOG       57  56  95 CALM      30.09S VSB 1
ROCKSPRINGS    NOT AVBL
HONDO          FOG       60  57  89 NE5       30.08S VSB 1
UVALDE         CLOUDY    55  54  97 NE5       30.09S FOG
DEL RIO        CLOUDY    52  50  93 CALM      30.08S
$$

SOUTHEAST TEXAS

CITY           SKY/WX    TMP DP  RH WIND       PRES   REMARKS
COLLEGE STN    CLOUDY    63  60  90 E8        30.12R
CALDWELL       NOT AVBL
CROCKETT       NOT AVBL
BRENHAM        CLOUDY    63  63  99 E3        30.12S FOG
HUNTSVILLE     LGT RAIN  61  59  93 CALM      30.13F FOG
CONROE         LGT RAIN  63  63 100 E3        30.15R FOG
HOUSTON BUSH   LGT RAIN  67  63  87 SE7       30.15R
HOUSTON HOBBY  LGT RAIN  65  65 100 SE3       30.14R FOG
PERLAND        LGT RAIN  64  64 100 SE6       30.15R FOG
WHARTON        LGT RAIN  64  63  95 CALM      30.12F
$$

THE UPPER TEXAS COAST

CITY           SKY/WX    TMP DP  RH WIND       PRES   REMARKS
ORANGE         DRIZZLE   67  66  97 E5        30.18R
PORT ARTHUR    CLOUDY    67  65  93 E10       30.16R FOG
GALVESTON      LGT RAIN  64  64 100 E10       30.14R VSB 1/2
ANGLETON       LGT RAIN  64  63  96 E7        30.13R FOG
BAY CITY       LGT RAIN  67  67 100 E6        30.11F
$$

TEXAS COASTAL BEND, RIO GRANDE PLAINS DEEP SOUTH TEXAS

CITY           SKY/WX    TMP DP  RH WIND       PRES   REMARKS
VICTORIA       FOG       63  61  93 NE6       30.09S VSB 1/4
BEEVILLE       CLOUDY    58  58 100 E9        30.07F FOG
ROCKPORT       FOG       65  64  97 CALM      30.08S VSB 3/4
PORT ARANSAS   NOT AVBL
PORT LAVACA    FOG       63  62  96 NE9       30.09S VSB 1/4
CORPUS CHRISTI CLOUDY    62  62 100 N7        30.08S FOG
KINGSVILLE NAS FOG       61  61 100 NE6       30.07F VSB 1/2
COTULLA        CLOUDY    56  55  97 CALM      30.08R FOG
LAREDO           N/A    N/A N/A N/A N9          N/A
BROWNSVILLE    CLOUDY    75  69  81 E9        30.06R
PORT ISABEL    CLOUDY    70  68  93 E6        30.05R FOG
HEBBRONVILLE   NOT AVBL
MCALLEN        FOG       63  61  93 N6        30.07S VSB 1/4
WESLACO        NOT AVBL
FALFURRIAS     CLOUDY    62  60  94 CALM      30.07S VSB 1
EDINBURG       CLOUDY    64  62  90 NW3       30.07S FOG
$$




USA.gov is the U.S. government's official web portal to all federal, state and local government web resources and services.